[[{"header":{"parameterUnit":"m.s-1","parameterCategory":1,"la1":30.2991,"la2":30.254,"lo1":-89.0895,"lo2":-89.0444,"dy":0.0017,"dx":0.0017,"nx":28,"ny":28,"refTime":"2023-10-17T03:00:00:Z","depth":0,"parameterNumber":2,"parameterNumberName":"U-component_of_WINDS"},"data":[0,0,0,0,0,0,0,0,0,0,0,0,0,0,0,0,0,0,0,0,0,0,0,0,0,0,0,0,0,0,0,0,0,0,0,0,0,0,0,0,0,0,0,0,0,0,0,0,0,0,0,0,0,0,0,0,0,0,-2.314,-2.3141,0,-2.3239,-2.324,-2.3241,-2.3292,-2.3292,-2.3292,-2.3292,-2.3392,-2.3394,-2.3397,0,0,0,0,0,0,0,0,0,0,0,0,0,-2.2992,-2.2994,-2.314,-2.3141,-2.3142,-2.3239,-2.324,-2.3242,-2.3292,-2.3292,-2.3292,-2.3292,-2.3391,-2.3394,-2.3397,0,0,0,0,0,0,0,0,0,0,0,0,0,-2.307,-2.2995,-2.3139,-2.3179,-2.3184,-2.3239,-2.324,-2.3242,-2.3292,-2.3292,-2.3292,-2.3292,-2.339,-2.3394,-2.3398,-2.342,0,0,-2.341,-2.3411,0,0,0,0,0,0,0,0,-2.3065,-2.3075,-2.3172,-2.3177,-2.3182,-2.3253,-2.3225,-2.3302,-2.3292,-2.3251,-2.3292,-2.3292,-2.3346,-2.3353,-2.3372,-2.3425,-2.3429,-2.341,-2.3412,-2.3414,-2.3415,0,0,0,0,0,0,0,-2.306,-2.3071,-2.3179,-2.3173,-2.3179,-2.3191,-2.3202,-2.3239,-2.3296,-2.3255,-2.3258,-2.327,-2.3348,-2.3368,-2.3374,-2.343,-2.341,-2.3413,-2.3416,-2.3417,-2.3507,-2.3507,0,0,0,0,0,0,-2.3048,-2.3066,-2.3176,-2.3182,-2.3123,-2.3194,-2.3206,-2.323,-2.3296,-2.3306,-2.3269,-2.3272,-2.3361,-2.337,-2.3378,-2.3409,-2.3414,-2.3418,-2.342,-2.3507,-2.3507,-2.3507,0,0,0,0,0,0,-2.3045,-2.3058,-2.3172,-2.3125,-2.3141,-2.3196,-2.3223,-2.3232,-2.3252,-2.3308,-2.3318,-2.3279,-2.3361,-2.3372,-2.3409,-2.3413,-2.3419,-2.3423,-2.3507,-2.3507,-2.3507,-2.347,0,0,0,0,0,0,-2.3041,-2.3056,-2.3066,-2.3125,-2.3143,-2.3202,-2.3223,-2.3234,-2.3259,-2.3262,-2.3319,-2.3329,-2.3362,-2.3403,-2.3413,-2.3418,-2.3426,-2.3507,-2.3507,-2.3507,-2.3471,-2.3468,-2.3466,0,0,0,0,0,-2.3035,-2.3051,-2.3066,-2.3079,-2.3156,-2.3202,-2.3212,-2.3251,-2.3259,-2.3268,-2.3304,-2.3327,-2.3411,-2.3407,-2.3418,-2.3424,-2.3507,-2.3507,-2.3507,-2.3472,-2.3469,-2.3466,0,0,0,0,0,0,-2.2989,-2.3059,-2.3077,-2.3112,-2.3151,-2.3211,-2.3224,-2.3247,-2.3284,-2.3285,-2.3332,-2.3344,-2.3377,-2.3404,-2.3398,-2.3449,-2.3461,-2.3463,-2.343,-2.3428,-2.3426,-2.3418,-2.3429,0,0,0,0,0,-2.2984,-2.3016,-2.3075,-2.31,-2.3119,-2.3168,-2.3189,-2.3216,-2.3258,-2.3274,-2.3313,-2.3352,-2.3387,-2.3409,-2.3444,-2.3475,-2.3488,-2.3485,-2.3483,-2.3481,-2.3482,-2.3501,-2.35,-2.3507,-2.3507,-2.3507,0,0,-2.2972,-2.3014,-2.3031,-2.3092,-2.3125,-2.3157,-2.3181,-2.3214,-2.3237,-2.3279,-2.3316,-2.3346,-2.3392,-2.3426,-2.3443,-2.345,-2.3483,-2.3481,-2.3479,-2.3482,-2.3501,-2.35,-2.3499,-2.3507,-2.3507,-2.3507,0,0,-2.2966,-2.3001,-2.3027,-2.3059,-2.3109,-2.3142,-2.3148,-2.3204,-2.3226,-2.3264,-2.3296,-2.3324,-2.3384,-2.3416,-2.344,-2.3446,-2.3469,-2.3457,-2.3445,-2.3462,-2.3462,-2.3461,-2.3464,-2.3464,-2.3458,-2.3458,-2.3458,0,-2.2945,-2.2994,-2.3036,-2.3067,-2.3093,-2.3133,-2.3158,-2.3188,-2.3246,-2.3263,-2.327,-2.3346,-2.338,-2.3422,-2.3424,-2.3442,-2.345,-2.345,-2.3459,-2.3459,-2.3459,-2.3462,-2.3463,-2.3456,-2.3456,-2.3456,-2.3457,0,-2.2965,-2.2999,-2.3013,-2.307,-2.3097,-2.3125,-2.3171,-2.3194,-2.3218,-2.3249,-2.3288,-2.333,-2.3375,-2.3387,-2.3411,-2.3432,-2.3435,-2.345,-2.3462,-2.3456,-2.3459,-2.3461,-2.3454,-2.3454,-2.3455,-2.3455,0,0,-2.2934,-2.3013,-2.3018,-2.3044,-2.3102,-2.3129,-2.3158,-2.3203,-2.3221,-2.326,-2.3286,-2.3336,-2.335,-2.3377,-2.3405,-2.342,-2.3422,-2.3433,-2.3435,-2.3429,-2.3449,-2.3437,-2.3438,-2.3437,-2.3438,-2.3438,-2.3445,0,-2.2936,-2.2992,-2.3031,-2.3071,-2.3103,-2.3141,-2.3167,-2.3205,-2.3235,-2.3266,-2.3299,-2.3333,-2.3349,-2.3366,-2.3383,-2.3418,-2.3427,-2.3418,-2.3461,-2.3462,-2.3449,-2.344,-2.3428,-2.3432,-2.3446,-2.3447,-2.3447,0,-2.2947,-2.2985,-2.3029,-2.3084,-2.3099,-2.3121,-2.3165,-2.3194,-2.3238,-2.3259,-2.3289,-2.3318,-2.335,-2.336,-2.3405,-2.3398,-2.3418,-2.3438,-2.3439,-2.3445,-2.3454,-2.3445,-2.3434,-2.3435,-2.3449,-2.3449,-2.3449,0,-2.2919,-2.2982,-2.3016,-2.3037,-2.3102,-2.3117,-2.3145,-2.3189,-2.3213,-2.3252,-2.3268,-2.3309,-2.3331,-2.3362,-2.3401,-2.3404,-2.3442,-2.3455,-2.346,-2.3459,-2.3466,-2.3465,-2.3458,-2.3479,-2.3479,-2.3479,-2.3478,0,-2.2917,-2.2943,-2.3005,-2.3026,-2.3055,-2.3099,-2.3126,-2.3157,-2.3196,-2.3223,-2.3259,-2.3283,-2.3333,-2.3364,-2.3394,-2.3427,-2.3436,-2.3454,-2.3462,-2.3451,-2.3449,-2.3464,-2.3465,-2.3479,-2.3479,-2.3479,-2.3479,0,-2.2891,-2.2934,-2.2974,-2.3032,-2.3048,-2.3067,-2.3117,-2.3138,-2.3171,-2.3205,-2.3215,-2.3266,-2.3304,-2.3345,-2.3397,-2.3418,-2.3448,-2.3459,-2.3434,-2.3438,-2.3441,-2.344,-2.3444,-2.3447,-2.3465,-2.3465,-2.3465,0,-2.2888,-2.2908,-2.2969,-2.299,-2.3017,-2.3051,-2.3076,-2.312,-2.3145,-2.3197,-2.3212,-2.3253,-2.3288,-2.3346,-2.3387,-2.3427,-2.3439,-2.3438,-2.3445,-2.3434,-2.3439,-2.3438,-2.344,-2.3436,-2.3435,-2.3435,-2.3435,0,-2.2876,-2.2897,-2.2932,-2.2975,-2.3004,-2.304,-2.3077,-2.3092,-2.3143,-2.3169,-2.3209,-2.3236,-2.3289,-2.3329,-2.3374,-2.3402,-2.3427,-2.3432,-2.3435,-2.3424,-2.3409,-2.3417,-2.3427,-2.3432,-2.3432,-2.3432,-2.3432,-2.3433,-2.2861,-2.2881,-2.2927,-2.2966,-2.2998,-2.3032,-2.3056,-2.3091,-2.3125,-2.3173,-2.3196,-2.3236,-2.3279,-2.3342,-2.3369,-2.3401,-2.3408,-2.3413,-2.3414,-2.3415,-2.3412,-2.3404,-2.3409,-2.3409,-2.3409,-2.3409,-2.3409,0,-2.2852,-2.2884,-2.2918,-2.297,-2.3,-2.3021,-2.3063,-2.3087,-2.3121,-2.316,-2.3194,-2.3239,-2.3278,-2.3323,-2.3364,-2.3381,-2.3393,-2.339,-2.3389,-2.3395,-2.3403,-2.3396,-2.338,-2.338,-2.338,-2.338,-2.338,-2.338,-2.285,-2.2885,-2.2911,-2.2962,-2.2994,-2.3033,-2.3056,-2.3087,-2.3118,-2.3168,-2.3201,-2.3229,-2.3271,-2.3316,-2.3352,-2.3364,-2.3378,-2.3371,-2.3387,-2.3392,-2.3395,-2.3397,-2.3391,-2.3374,-2.3374,-2.3377,-2.3377,-2.3377]},{"header":{"parameterUnit":"m.s-1","parameterCategory":1,"la1":30.2991,"la2":30.254,"lo1":-89.0895,"lo2":-89.0444,"dy":0.0017,"dx":0.0017,"nx":28,"ny":28,"refTime":"2023-10-17T03:00:00:Z","depth":0,"parameterNumber":3,"parameterNumberName":"V-component_of_WINDS"},"data":[0,0,0,0,0,0,0,0,0,0,0,0,0,0,0,0,0,0,0,0,0,0,0,0,0,0,0,0,0,0,0,0,0,0,0,0,0,0,0,0,0,0,0,0,0,0,0,0,0,0,0,0,0,0,0,0,0,0,0.3651,0.3652,0,0.373,0.3731,0.3732,0.3773,0.3773,0.3773,0.3774,0.3852,0.3854,0.3856,0,0,0,0,0,0,0,0,0,0,0,0,0,0.3532,0.3534,0.3651,0.3652,0.3653,0.373,0.3731,0.3732,0.3773,0.3773,0.3774,0.3774,0.3851,0.3853,0.3856,0,0,0,0,0,0,0,0,0,0,0,0,0,0.3595,0.3535,0.3651,0.3683,0.3686,0.373,0.3731,0.3733,0.3773,0.3773,0.3774,0.3774,0.385,0.3853,0.3856,0.3873,0,0,0.3866,0.3867,0,0,0,0,0,0,0,0,0.3591,0.3599,0.3677,0.3681,0.3685,0.3742,0.3718,0.378,0.3773,0.374,0.3774,0.3774,0.3815,0.3821,0.3836,0.3877,0.388,0.3866,0.3868,0.3869,0.387,0,0,0,0,0,0,0,0.3587,0.3596,0.3682,0.3678,0.3683,0.3692,0.3701,0.373,0.3776,0.3743,0.3746,0.3755,0.3817,0.3833,0.3838,0.3881,0.3866,0.3868,0.387,0.3871,0.3941,0.3941,0,0,0,0,0,0,0.3578,0.3592,0.368,0.3685,0.3637,0.3694,0.3704,0.3724,0.3776,0.3784,0.3755,0.3757,0.3827,0.3834,0.3841,0.3865,0.3869,0.3872,0.3874,0.3941,0.3941,0.3941,0,0,0,0,0,0,0.3575,0.3585,0.3677,0.3639,0.3652,0.3696,0.3717,0.3725,0.3741,0.3785,0.3793,0.3763,0.3828,0.3836,0.3865,0.3868,0.3873,0.3876,0.3941,0.3941,0.3941,0.3912,0,0,0,0,0,0,0.3571,0.3584,0.3591,0.3639,0.3653,0.3701,0.3718,0.3727,0.3746,0.3749,0.3794,0.3802,0.3828,0.386,0.3868,0.3872,0.3878,0.3941,0.3941,0.3941,0.3913,0.3911,0.391,0,0,0,0,0,0.3567,0.3579,0.3592,0.3602,0.3664,0.3701,0.3709,0.374,0.3746,0.3754,0.3782,0.38,0.3866,0.3863,0.3872,0.3877,0.3941,0.3941,0.3941,0.3914,0.3912,0.391,0,0,0,0,0,0,0.3529,0.3586,0.36,0.3629,0.366,0.3708,0.3718,0.3737,0.3766,0.3767,0.3804,0.3814,0.3839,0.3861,0.3856,0.3896,0.3905,0.3907,0.3882,0.388,0.3878,0.3873,0.3881,0,0,0,0,0,0.3525,0.3551,0.3598,0.3618,0.3633,0.3673,0.369,0.3712,0.3745,0.3758,0.3789,0.3819,0.3847,0.3864,0.3892,0.3916,0.3927,0.3924,0.3922,0.3921,0.3922,0.3937,0.3936,0.3941,0.3941,0.3941,0,0,0.3514,0.3549,0.3563,0.3612,0.3638,0.3664,0.3684,0.371,0.3729,0.3761,0.3791,0.3815,0.3851,0.3878,0.3891,0.3897,0.3923,0.3921,0.3919,0.3921,0.3937,0.3936,0.3936,0.3941,0.3941,0.3941,0,0,0.351,0.3538,0.3559,0.3585,0.3626,0.3652,0.3656,0.3702,0.3719,0.375,0.3775,0.3797,0.3844,0.387,0.3889,0.3894,0.3911,0.3901,0.3893,0.3907,0.3906,0.3906,0.3908,0.3909,0.3902,0.3902,0.3902,0,0.3492,0.3532,0.3566,0.3592,0.3612,0.3644,0.3665,0.3689,0.3735,0.3749,0.3755,0.3815,0.3841,0.3875,0.3876,0.389,0.3897,0.3897,0.3904,0.3904,0.3904,0.3907,0.3908,0.3901,0.3901,0.3901,0.3901,0,0.3509,0.3536,0.3548,0.3594,0.3616,0.3639,0.3676,0.3694,0.3713,0.3738,0.3769,0.3802,0.3838,0.3847,0.3866,0.3883,0.3886,0.3897,0.3907,0.3902,0.3905,0.3906,0.3899,0.39,0.39,0.39,0,0,0.3483,0.3548,0.3552,0.3574,0.3621,0.3642,0.3666,0.3702,0.3717,0.3748,0.3769,0.3808,0.3819,0.384,0.3862,0.3874,0.3877,0.3884,0.3886,0.3882,0.3898,0.389,0.3891,0.3888,0.3889,0.3889,0.3896,0,0.3486,0.3532,0.3563,0.3596,0.3622,0.3653,0.3673,0.3704,0.3728,0.3753,0.3779,0.3807,0.3819,0.3832,0.3845,0.3873,0.388,0.3873,0.3908,0.3909,0.3899,0.3892,0.3884,0.3888,0.3897,0.3897,0.3897,0,0.3495,0.3527,0.3563,0.3608,0.362,0.3638,0.3674,0.3697,0.3732,0.3749,0.3773,0.3796,0.3821,0.3828,0.3864,0.3859,0.3874,0.389,0.3891,0.3896,0.3903,0.3898,0.3891,0.3892,0.3899,0.3899,0.3899,0,0.3473,0.3525,0.3554,0.3571,0.3624,0.3636,0.3658,0.3694,0.3713,0.3744,0.3757,0.379,0.3808,0.3832,0.3862,0.3864,0.3895,0.3904,0.391,0.3909,0.3915,0.3915,0.3911,0.3924,0.3924,0.3924,0.3924,0,0.3474,0.3495,0.3545,0.3562,0.3587,0.3622,0.3645,0.367,0.3701,0.3723,0.3751,0.3771,0.3809,0.3834,0.3858,0.3884,0.3892,0.3906,0.3912,0.3904,0.3902,0.3915,0.3916,0.3924,0.3924,0.3924,0.3924,0,0.3454,0.3489,0.3522,0.357,0.3582,0.3598,0.3638,0.3656,0.3682,0.371,0.3718,0.3758,0.3789,0.3821,0.3862,0.3878,0.3903,0.3912,0.3892,0.3896,0.3899,0.3899,0.3905,0.3908,0.3917,0.3917,0.3917,0,0.3453,0.347,0.352,0.3537,0.3559,0.3587,0.3608,0.3643,0.3663,0.3704,0.3717,0.375,0.3778,0.3825,0.3857,0.3889,0.3898,0.3898,0.3903,0.3895,0.3899,0.3898,0.39,0.3897,0.3897,0.3896,0.3896,0,0.3446,0.3463,0.3492,0.3527,0.3552,0.3581,0.3611,0.3623,0.3664,0.3685,0.3718,0.3739,0.3782,0.3814,0.385,0.3871,0.3891,0.3894,0.3897,0.389,0.3878,0.3885,0.3889,0.3894,0.3894,0.3894,0.3895,0.3895,0.3436,0.3453,0.3491,0.3523,0.355,0.3578,0.3597,0.3626,0.3653,0.3692,0.371,0.3742,0.3777,0.3827,0.3848,0.3873,0.3879,0.3883,0.3884,0.3885,0.3883,0.3873,0.3879,0.388,0.388,0.388,0.388,0,0.3432,0.3458,0.3487,0.3529,0.3554,0.3571,0.3605,0.3625,0.3653,0.3684,0.3712,0.3749,0.378,0.3814,0.3848,0.3861,0.3871,0.3869,0.3868,0.3873,0.3876,0.387,0.386,0.386,0.386,0.386,0.386,0.386,0.3433,0.3463,0.3484,0.3527,0.3553,0.3586,0.3604,0.3629,0.3654,0.3695,0.3722,0.3744,0.3777,0.3813,0.3842,0.3851,0.3862,0.3858,0.387,0.3871,0.3873,0.3874,0.387,0.386,0.386,0.3865,0.3865,0.3865]}]]